Cherryvale, KS

8:16 PM CDT on August 31, 2016 (GMT -0500)
Tri-City

Weather History for KPPF - August, 2013

Change the Weather History Date:

Saturday, August 10, 2013

  Actual Average Record
Temperature  
Mean Temperature 75 °F -  
Max Temperature 86 °F 90 °F 102 °F (2010)
Min Temperature 66 °F 67 °F 53 °F (1989)
Cooling Degree Days 10    
Growing Degree Days 25 (Base 50)    
Moisture  
Dew Point 66 °F    
Average Humidity 80    
Maximum Humidity 94    
Minimum Humidity 55    
Precipitation  
Precipitation 0.00 in - - ()
Sea Level Pressure  
Sea Level Pressure 30.12 in    
Wind  
Wind Speed 4 mph (NNE)    
Max Wind Speed 8 mph    
Max Gust Speed -    
Visibility 6 miles    
Events      
Averages and records for this station are not official NWS values.
T = Trace of Precipitation, MM = Missing Value Source: NWS Daily Summary

Daily Weather History Graph

Daily Weather History Graph

Search for Another Location

Airport or City:

Trip Planner

Search our weather history database for the weather conditions in past years. The results will help you decide how hot, cold, wet, or windy it might be!

Date:

Astronomy

Aug. 10, 2013 Rise Set
Actual Time 6:34 AM CDT 8:19 PM CDT
Civil Twilight 6:06 AM CDT 8:47 PM CDT
Nautical Twilight 5:32 AM CDT 9:21 PM CDT
Astronomical Twilight 4:55 AM CDT 9:57 PM CDT
Moon 10:15 AM CDT (8/10) 10:08 PM CDT (8/10)
Length of Visible Light 14h 41m
Length of Day
13h 45m
Waxing Crescent, 14% of the Moon is Illuminated
Aug 10
Waxing Crescent
Aug 14
First Quarter
Aug 20
Full
Aug 28
Last Quarter
Sep 5
New

Hourly Weather History & Observations

Time (CDT) Temp. Heat Index Dew Point Humidity Pressure Visibility Wind Dir Wind Speed Gust Speed Precip Events Conditions
12:52 AM 69.1 °F - 66.0 °F 90% 30.10 in 8.0 mi North 4.6 mph - N/A   Clear
1:50 AM 69.1 °F - 66.0 °F 90% 30.10 in 1.8 mi North 5.8 mph - N/A   Clear
2:32 AM 69.8 °F - 66.2 °F 88% 30.12 in 2.0 mi NNE 5.8 mph - N/A   Clear
2:50 AM 69.8 °F - 66.2 °F 88% 30.12 in 1.8 mi NNE 3.5 mph - N/A   Clear
2:52 AM 69.1 °F - 66.0 °F 90% 30.10 in 1.8 mi NNE 3.5 mph - N/A   Clear
3:52 AM 68.0 °F - 64.9 °F 90% 30.10 in 1.2 mi Calm Calm - N/A   Clear
4:25 AM 68.0 °F - 64.4 °F 88% 30.13 in 1.5 mi North 4.6 mph - N/A   Clear
4:52 AM 66.9 °F - 64.9 °F 93% 30.11 in 1.8 mi NNE 4.6 mph - N/A   Clear
5:25 AM 66.2 °F - 64.4 °F 94% 30.12 in 1.2 mi NNE 3.5 mph - N/A   Partly Cloudy
5:33 AM 66.2 °F - 64.4 °F 94% 30.12 in 1.5 mi North 4.6 mph - N/A   Partly Cloudy
5:48 AM 66.2 °F - 64.4 °F 94% 30.12 in 2.0 mi North 3.5 mph - N/A   Clear
5:52 AM 66.9 °F - 64.0 °F 90% 30.10 in 2.0 mi North 4.6 mph - N/A   Clear
6:36 AM 66.2 °F - 64.4 °F 94% 30.13 in 1.2 mi NNE 3.5 mph - N/A   Clear
6:52 AM 66.9 °F - 64.0 °F 90% 30.12 in 1.2 mi NNE 3.5 mph - N/A   Clear
7:37 AM 68.0 °F - 64.4 °F 88% 30.16 in 1.0 mi Variable 3.5 mph - N/A   Clear
7:44 AM 68.0 °F - 64.4 °F 88% 30.16 in 1.5 mi Variable 4.6 mph - N/A   Clear
7:47 AM 68.0 °F - 64.4 °F 88% 30.16 in 3.0 mi Variable 3.5 mph - N/A   Clear
7:52 AM 68.0 °F - 64.0 °F 87% 30.14 in 10.0 mi NNE 4.6 mph - N/A   Clear
8:52 AM 72.0 °F - 64.0 °F 76% 30.15 in 10.0 mi Variable 4.6 mph - N/A   Clear
9:52 AM 75.9 °F - 66.0 °F 71% 30.15 in 10.0 mi NE 6.9 mph - N/A   Clear
10:52 AM 78.1 °F - 66.9 °F 68% 30.15 in 10.0 mi Variable 5.8 mph - N/A   Clear
11:52 AM 80.1 °F 81.9 °F 64.9 °F 60% 30.16 in 10.0 mi Variable 6.9 mph - N/A   Partly Cloudy
12:52 PM 81.0 °F 82.7 °F 64.9 °F 58% 30.14 in 10.0 mi Variable 4.6 mph - N/A   Partly Cloudy
1:52 PM 82.0 °F 83.8 °F 64.9 °F 56% 30.14 in 10.0 mi NE 8.1 mph - N/A   Scattered Clouds
2:52 PM 82.9 °F 85.0 °F 66.0 °F 56% 30.12 in 10.0 mi Variable 3.5 mph - N/A   Partly Cloudy
3:52 PM 82.9 °F 85.0 °F 66.0 °F 56% 30.10 in 10.0 mi Variable 4.6 mph - N/A   Partly Cloudy
4:52 PM 84.9 °F 87.6 °F 66.9 °F 55% 30.08 in 10.0 mi NE 6.9 mph - N/A   Scattered Clouds
5:52 PM 84.0 °F 86.5 °F 66.9 °F 56% 30.07 in 10.0 mi Variable 4.6 mph - N/A   Clear
6:52 PM 82.9 °F 85.4 °F 66.9 °F 58% 30.06 in 10.0 mi Calm Calm - N/A   Clear
7:52 PM 79.0 °F - 68.0 °F 69% 30.06 in 10.0 mi Calm Calm - N/A   Clear
8:52 PM 73.0 °F - 68.0 °F 84% 30.07 in 10.0 mi Calm Calm - N/A   Clear
9:52 PM 72.0 °F - 68.0 °F 87% 30.08 in 10.0 mi Calm Calm - N/A   Clear
10:52 PM 71.1 °F - 66.9 °F 87% 30.10 in 10.0 mi Calm Calm - N/A   Clear
11:52 PM 71.1 °F - 66.9 °F 87% 30.11 in 10.0 mi Calm Calm - N/A   Clear